Location: Caltech
(34.1382°N, 118.1253°W)
Time: 02:29:41
(UTC-07:00)

Cosmos 1833 - Visible Passes

Search period start: 18 June 2018 00:00
Search period end: 28 June 2018 00:00
Orbit: 829 x 869 km, 70.9° (Epoch: 17 June)

Date Brightness Start Highest point End Pass type
(mag) Time Alt. Az. Time Alt. Az. Time Alt. Az.
18 Jun 5.3 02:28:19 10° N 02:33:34 40° ENE 02:36:45 21° ESE visible
18 Jun 5.3 04:13:13 10° NW 04:17:27 22° W 04:18:38 21° WSW visible
19 Jun 5.3 02:15:36 10° N 02:20:50 40° ENE 02:23:07 28° ESE visible
19 Jun 5.3 04:00:28 10° NW 04:04:43 23° W 04:05:00 23° WSW visible
20 Jun 5.3 02:02:52 10° N 02:08:06 39° ENE 02:09:40 33° E visible
20 Jun 5.4 03:47:43 10° NW 03:51:33 23° W 03:51:33 23° W visible
21 Jun 5.2 01:50:09 10° N 01:55:22 39° ENE 01:56:22 36° E visible
21 Jun 5.5 03:34:58 10° NW 03:38:17 22° W 03:38:17 22° W visible
22 Jun 5.2 01:37:26 10° N 01:42:38 39° ENE 01:43:12 38° ENE visible
22 Jun 5.6 03:22:13 10° NW 03:25:07 21° W 03:25:07 21° W visible
23 Jun 5.2 01:24:42 10° N 01:29:54 38° ENE 01:30:07 38° ENE visible
23 Jun 5.7 03:09:28 10° NW 03:12:03 20° WNW 03:12:03 20° WNW visible
24 Jun 5.2 01:11:58 10° N 01:17:07 38° ENE 01:17:07 38° ENE visible
24 Jun 5.8 02:56:43 10° NW 02:59:03 19° WNW 02:59:03 19° WNW visible
25 Jun 5.3 00:59:15 10° N 01:04:12 37° ENE 01:04:12 37° ENE visible
25 Jun 5.9 02:43:58 10° NW 02:46:08 19° WNW 02:46:08 19° WNW visible
26 Jun 5.3 00:46:31 10° N 00:51:20 37° NE 00:51:20 37° NE visible
26 Jun 6.0 02:31:13 10° NW 02:33:16 19° WNW 02:33:16 19° WNW visible
27 Jun 5.3 00:33:48 10° N 00:38:30 36° NE 00:38:30 36° NE visible
27 Jun 6.0 02:18:27 10° NW 02:20:27 18° WNW 02:20:27 18° WNW visible
